[[{"header":{"parameterUnit":"m.s-1","parameterCategory":2,"la1":30.2992,"la2":30.254,"lo1":-89.0895,"lo2":-89.0443,"dy":0.0025,"dx":0.0025,"nx":19,"ny":19,"refTime":"2026-05-02T21:00:00:Z","depth":"0","parameterNumber":2,"parameterNumberName":"U-component_of_CURRENTS"},"data":[0,0,0,-0.2587,-0.2589,-0.2647,-0.2647,-0.2695,-0.2696,0,0,0,0,0,0,0,0,0,0,0,-0.2554,-0.2554,-0.2587,-0.2589,-0.2647,-0.2647,-0.2695,-0.2696,0,0,0,0,0,0,0,0,0,0,0,-0.2554,-0.2554,-0.2554,-0.2589,-0.2647,-0.2647,-0.2695,-0.2656,0,0,0,0,0,0,0,0,0,0,-0.2601,-0.2569,-0.2554,-0.2554,-0.259,-0.2647,-0.2647,-0.2654,-0.2658,-0.2664,0,-0.2672,0,-0.2695,-0.2699,-0.27,0,0,0,-0.258,-0.2565,-0.2594,-0.2554,-0.259,-0.2647,-0.2618,-0.2656,-0.2661,-0.267,-0.2673,-0.2675,-0.2696,-0.27,-0.27,-0.278,-0.278,0,0,-0.2576,-0.2552,-0.2591,-0.2597,-0.2604,-0.2617,-0.262,-0.2659,-0.2655,-0.2673,-0.2677,-0.2697,-0.27,-0.27,-0.2779,-0.278,0,0,0,-0.2573,-0.255,-0.2578,-0.2594,-0.2613,-0.2618,-0.2623,-0.2653,-0.2666,-0.2678,-0.2697,-0.27,-0.2701,-0.2779,-0.278,-0.281,0,0,0,-0.2571,-0.255,-0.2576,-0.2561,-0.2612,-0.2636,-0.2615,-0.2663,-0.2669,-0.2697,-0.27,-0.2702,-0.2778,-0.2779,-0.2808,-0.2805,0,0,0,-0.2551,-0.2547,-0.2556,-0.256,-0.2593,-0.2636,-0.2651,-0.2664,-0.2681,-0.27,-0.2702,-0.2778,-0.2779,-0.2806,-0.2803,-0.2794,0,0,0,-0.2522,-0.2547,-0.2555,-0.2597,-0.2592,-0.267,-0.2651,-0.2696,-0.2717,-0.2701,-0.2778,-0.278,-0.2805,-0.2801,-0.2793,-0.2661,-0.2655,0,0,-0.2544,-0.2548,-0.2579,-0.259,-0.2665,-0.2662,-0.2732,-0.2742,-0.2734,-0.2761,-0.2763,-0.2808,-0.2803,-0.2794,-0.2728,-0.2719,0,0,0,-0.2582,-0.2594,-0.2622,-0.2664,-0.272,-0.2754,-0.2777,-0.2782,-0.2799,-0.2754,-0.2824,-0.2819,-0.2812,-0.2731,-0.2725,-0.2623,-0.2785,-0.2785,-0.2785,-0.2545,-0.2602,-0.2648,-0.2715,-0.2764,-0.2822,-0.2845,-0.2852,-0.2849,-0.2859,-0.2856,-0.2885,-0.2801,-0.2794,-0.2693,-0.2878,-0.2878,-0.2878,-0.2878,-0.2559,-0.2574,-0.2652,-0.2713,-0.2774,-0.2828,-0.2894,-0.2897,-0.2913,-0.2903,-0.2895,-0.2782,-0.2789,-0.2683,-0.288,-0.288,-0.288,-0.2879,-0.2879,-0.2504,-0.2517,-0.257,-0.2651,-0.2723,-0.2808,-0.2852,-0.2905,-0.2919,-0.2929,-0.2813,-0.281,-0.2703,-0.2917,-0.2917,-0.2917,-0.2917,-0.2917,-0.2917,-0.2402,-0.2463,-0.2479,-0.2583,-0.2618,-0.2699,-0.2817,-0.2846,-0.2843,-0.2823,-0.2822,-0.2693,-0.2896,-0.2878,-0.2917,-0.2917,-0.2917,-0.2917,-0.2917,-0.2299,-0.2328,-0.2348,-0.2379,-0.2477,-0.2488,-0.2656,-0.2686,-0.2728,-0.2692,-0.2563,-0.276,-0.2727,-0.273,-0.2708,-0.2701,-0.2701,-0.2701,-0.2701,-0.2189,-0.2224,-0.22,-0.222,-0.228,-0.2375,-0.2326,-0.2378,-0.2397,-0.2339,-0.242,-0.2376,-0.2389,-0.2336,-0.2347,-0.2317,-0.2212,-0.2211,-0.2211,-0.2089,-0.2113,-0.2045,-0.2104,-0.2171,-0.2208,-0.2094,-0.2058,-0.2107,-0.2187,-0.2309,-0.2329,-0.2265,-0.2294,-0.2212,-0.2237,-0.2189,0,0]},{"header":{"parameterUnit":"m.s-1","parameterCategory":2,"la1":30.2992,"la2":30.254,"lo1":-89.0895,"lo2":-89.0443,"dy":0.0025,"dx":0.0025,"nx":19,"ny":19,"refTime":"2026-05-02T21:00:00:Z","depth":"0","parameterNumber":3,"parameterNumberName":"V-component_of_CURRENTS"},"data":[0,0,0,-0.0449,-0.0448,-0.0376,-0.0376,-0.0248,-0.0247,0,0,0,0,0,0,0,0,0,0,0,-0.0473,-0.0472,-0.0449,-0.0447,-0.0376,-0.0376,-0.0249,-0.0247,0,0,0,0,0,0,0,0,0,0,0,-0.0473,-0.0473,-0.0472,-0.0447,-0.0376,-0.0376,-0.0249,-0.0308,0,0,0,0,0,0,0,0,0,0,-0.038,-0.0415,-0.0473,-0.0472,-0.0447,-0.0377,-0.0376,-0.0311,-0.0304,-0.0275,0,-0.0273,0,-0.0263,-0.0239,-0.0239,0,0,0,-0.0433,-0.0421,-0.0402,-0.0472,-0.0447,-0.0377,-0.0404,-0.0308,-0.03,-0.0266,-0.0272,-0.0267,-0.0261,-0.0239,-0.0238,-0.0175,-0.0175,0,0,-0.0437,-0.0454,-0.0408,-0.0398,-0.0439,-0.0407,-0.0402,-0.0303,-0.0298,-0.0271,-0.0264,-0.0259,-0.0238,-0.0237,-0.0174,-0.0175,0,0,0,-0.0458,-0.0457,-0.0441,-0.0403,-0.0396,-0.0405,-0.04,-0.0303,-0.0298,-0.0263,-0.0257,-0.0237,-0.0236,-0.0174,-0.0175,-0.0274,0,0,0,-0.046,-0.047,-0.0443,-0.0451,-0.0399,-0.0354,-0.0402,-0.0305,-0.0294,-0.0258,-0.0237,-0.0235,-0.0174,-0.0174,-0.0271,-0.0318,0,0,0,-0.0474,-0.0471,-0.0467,-0.0453,-0.0429,-0.0356,-0.0345,-0.0302,-0.0291,-0.0239,-0.0234,-0.0174,-0.0174,-0.0268,-0.0313,-0.0285,0,0,0,-0.0487,-0.052,-0.0468,-0.0501,-0.043,-0.0423,-0.0345,-0.0323,-0.0288,-0.0237,-0.0174,-0.0175,-0.0267,-0.0309,-0.0283,-0.02,-0.0204,0,0,-0.0545,-0.0527,-0.0549,-0.0502,-0.053,-0.0431,-0.0436,-0.0353,-0.0281,-0.0201,-0.0199,-0.0272,-0.0312,-0.0285,-0.0228,-0.023,0,0,0,-0.058,-0.0599,-0.0597,-0.0596,-0.056,-0.0518,-0.0432,-0.0379,-0.0305,-0.0263,-0.0253,-0.0275,-0.0255,-0.02,-0.0202,0.0032,-0.0177,-0.0177,-0.0177,-0.0673,-0.0662,-0.0705,-0.0684,-0.0664,-0.0573,-0.0526,-0.0431,-0.0362,-0.034,-0.0343,-0.0374,-0.0318,-0.0318,-0.008,-0.0324,-0.0325,-0.0325,-0.0325,-0.0779,-0.0813,-0.0784,-0.0821,-0.0757,-0.0737,-0.0609,-0.0543,-0.0451,-0.0405,-0.0379,-0.0292,-0.0326,-0.0071,-0.0331,-0.033,-0.0329,-0.0329,-0.0328,-0.085,-0.0869,-0.088,-0.0917,-0.0909,-0.083,-0.0788,-0.0673,-0.0543,-0.0527,-0.0394,-0.0391,-0.0172,-0.0496,-0.0496,-0.0496,-0.0496,-0.0496,-0.0496,-0.0918,-0.0934,-0.0993,-0.1016,-0.1034,-0.1012,-0.0882,-0.0791,-0.06,-0.0487,-0.0485,-0.0144,-0.0425,-0.0425,-0.0498,-0.0498,-0.0498,-0.0497,-0.0497,-0.1015,-0.1011,-0.1109,-0.1145,-0.1183,-0.1177,-0.1044,-0.0795,-0.066,-0.0541,-0.0112,-0.0429,-0.0374,-0.0369,-0.0366,-0.042,-0.042,-0.042,-0.042,-0.1067,-0.1078,-0.1201,-0.1274,-0.1317,-0.1253,-0.1111,-0.0805,-0.0301,-0.0023,0.0051,0.0127,0.0113,0.0203,0.0194,0.0211,0.0305,0.0307,0.0308,-0.1119,-0.1157,-0.1248,-0.1321,-0.1377,-0.1319,-0.1156,-0.0746,0.0015,0.0359,0.0359,0.0328,0.046,0.042,0.0575,0.0545,0.0578,0,0]}],[{"header":{"parameterUnit":"m.s-1","parameterCategory":2,"la1":30.2992,"la2":30.254,"lo1":-89.0895,"lo2":-89.0443,"dy":0.0025,"dx":0.0025,"nx":19,"ny":19,"refTime":"2026-05-02T21:00:00:Z","depth":"2","parameterNumber":2,"parameterNumberName":"U-component_of_CURRENTS"},"data":[0,0,0,-0.2297,-0.2299,-0.2371,-0.2371,-0.2433,-0.2434,0,0,0,0,0,0,0,0,0,0,0,-0.2261,-0.2262,-0.2297,-0.2299,-0.2371,-0.2371,-0.2433,-0.2434,0,0,0,0,0,0,0,0,0,0,0,-0.2261,-0.2262,-0.2262,-0.2299,-0.2371,-0.2371,-0.2433,-0.2385,0,0,0,0,0,0,0,0,0,0,-0.2318,-0.2286,-0.2262,-0.2262,-0.23,-0.2371,-0.2371,-0.2383,-0.2388,-0.2394,0,-0.2403,0,-0.2427,-0.2438,-0.2438,0,0,0,-0.2294,-0.2281,-0.231,-0.2262,-0.23,-0.2371,-0.2337,-0.2386,-0.2392,-0.24,-0.2404,-0.2407,-0.2428,-0.2438,-0.2438,-0.2518,-0.2518,0,0,-0.229,-0.2267,-0.2306,-0.2313,-0.2316,-0.2335,-0.2339,-0.239,-0.2388,-0.2404,-0.2409,-0.2429,-0.2439,-0.2439,-0.2518,-0.2518,0,0,0,-0.2282,-0.2264,-0.2291,-0.231,-0.2329,-0.2337,-0.2342,-0.2386,-0.2397,-0.241,-0.2429,-0.2439,-0.244,-0.2517,-0.2518,-0.2545,0,0,0,-0.2279,-0.226,-0.2289,-0.2276,-0.2329,-0.2362,-0.2337,-0.2393,-0.2401,-0.2429,-0.2439,-0.244,-0.2517,-0.2518,-0.2543,-0.2543,0,0,0,-0.2259,-0.2258,-0.2268,-0.2274,-0.231,-0.2362,-0.2376,-0.2396,-0.2413,-0.2438,-0.244,-0.2516,-0.2517,-0.2542,-0.2541,-0.2537,0,0,0,-0.2232,-0.2255,-0.2267,-0.2306,-0.231,-0.2387,-0.2376,-0.2427,-0.2453,-0.2439,-0.2517,-0.2518,-0.2541,-0.2539,-0.2536,-0.2386,-0.2378,0,0,-0.2251,-0.2256,-0.2285,-0.2298,-0.2369,-0.2377,-0.2447,-0.247,-0.2468,-0.2496,-0.2498,-0.2544,-0.254,-0.2536,-0.2445,-0.2435,0,0,0,-0.2286,-0.2297,-0.2324,-0.2365,-0.2422,-0.2462,-0.2494,-0.2504,-0.2531,-0.2489,-0.2557,-0.2554,-0.255,-0.2459,-0.2452,-0.2523,-0.2523,-0.2522,-0.2522,-0.2251,-0.2303,-0.2347,-0.241,-0.246,-0.2526,-0.2555,-0.2572,-0.2573,-0.2587,-0.2587,-0.2616,-0.252,-0.2512,-0.2605,-0.2606,-0.2606,-0.2606,-0.2606,-0.2262,-0.2276,-0.235,-0.2409,-0.2472,-0.2529,-0.2601,-0.2611,-0.2637,-0.2629,-0.2624,-0.2505,-0.2506,-0.2608,-0.2608,-0.2607,-0.2607,-0.2607,-0.2607,-0.2211,-0.2224,-0.2275,-0.2353,-0.2426,-0.2514,-0.2559,-0.2621,-0.2644,-0.2657,-0.2535,-0.2532,-0.261,-0.2649,-0.2649,-0.2649,-0.2649,-0.2649,-0.2649,-0.2119,-0.2176,-0.2192,-0.2292,-0.2326,-0.2408,-0.2529,-0.2558,-0.2559,-0.2543,-0.2541,-0.263,-0.2628,-0.2613,-0.2649,-0.2649,-0.2649,-0.2649,-0.2649,-0.2025,-0.2053,-0.207,-0.21,-0.2192,-0.2188,-0.2356,-0.238,-0.2431,-0.2391,-0.247,-0.2475,-0.2443,-0.2447,-0.2426,-0.2413,-0.2413,-0.2413,-0.2413,-0.1927,-0.1957,-0.1933,-0.1948,-0.1995,-0.2073,-0.1998,-0.2025,-0.2132,-0.2129,-0.2141,-0.2093,-0.2109,-0.2057,-0.207,-0.2041,-0.1927,-0.1926,-0.1926,-0.1837,-0.1855,-0.179,-0.1839,-0.1887,-0.1898,-0.1744,-0.1629,-0.1705,-0.1908,-0.207,-0.2378,-0.234,-0.2352,-0.2299,-0.2309,-0.2273,0,0]},{"header":{"parameterUnit":"m.s-1","parameterCategory":2,"la1":30.2992,"la2":30.254,"lo1":-89.0895,"lo2":-89.0443,"dy":0.0025,"dx":0.0025,"nx":19,"ny":19,"refTime":"2026-05-02T21:00:00:Z","depth":"2","parameterNumber":3,"parameterNumberName":"V-component_of_CURRENTS"},"data":[0,0,0,-0.0321,-0.032,-0.0259,-0.0259,-0.0145,-0.0144,0,0,0,0,0,0,0,0,0,0,0,-0.0341,-0.0341,-0.0321,-0.032,-0.0259,-0.0259,-0.0145,-0.0144,0,0,0,0,0,0,0,0,0,0,0,-0.0341,-0.0341,-0.0341,-0.032,-0.026,-0.0259,-0.0145,-0.0197,0,0,0,0,0,0,0,0,0,0,-0.0259,-0.029,-0.0341,-0.0341,-0.032,-0.026,-0.0259,-0.02,-0.0194,-0.0167,0,-0.0166,0,-0.0158,-0.0137,-0.0137,0,0,0,-0.0306,-0.0295,-0.0279,-0.0341,-0.0319,-0.026,-0.0283,-0.0197,-0.019,-0.0159,-0.0165,-0.0161,-0.0156,-0.0136,-0.0136,-0.0074,-0.0075,0,0,-0.031,-0.0325,-0.0284,-0.0276,-0.0314,-0.0285,-0.0281,-0.0193,-0.0189,-0.0164,-0.0158,-0.0154,-0.0136,-0.0135,-0.0074,-0.0074,0,0,0,-0.0329,-0.0327,-0.0314,-0.028,-0.0275,-0.0284,-0.0279,-0.0193,-0.0189,-0.0157,-0.0153,-0.0135,-0.0134,-0.0074,-0.0074,-0.0163,0,0,0,-0.033,-0.0339,-0.0316,-0.0323,-0.0277,-0.0239,-0.0281,-0.0195,-0.0185,-0.0153,-0.0135,-0.0133,-0.0074,-0.0074,-0.0161,-0.0209,0,0,0,-0.0342,-0.034,-0.0337,-0.0325,-0.0305,-0.024,-0.0231,-0.0193,-0.0183,-0.0136,-0.0132,-0.0074,-0.0074,-0.0158,-0.0204,-0.0187,0,0,0,-0.0353,-0.0382,-0.0338,-0.0367,-0.0305,-0.0299,-0.0231,-0.0211,-0.018,-0.0134,-0.0074,-0.0074,-0.0158,-0.0201,-0.0185,-0.0127,-0.0132,0,0,-0.0404,-0.0388,-0.0408,-0.0368,-0.0392,-0.0305,-0.031,-0.0237,-0.0171,-0.0097,-0.0096,-0.0162,-0.0203,-0.0187,-0.0146,-0.015,0,0,0,-0.0434,-0.0451,-0.0449,-0.045,-0.0418,-0.0383,-0.0306,-0.0258,-0.019,-0.0155,-0.0143,-0.0166,-0.0153,-0.0113,-0.0116,-0.0076,-0.0076,-0.0076,-0.0076,-0.0516,-0.0507,-0.0545,-0.0527,-0.051,-0.0431,-0.039,-0.0304,-0.0239,-0.0219,-0.0225,-0.0257,-0.0216,-0.0218,-0.0202,-0.0203,-0.0203,-0.0203,-0.0204,-0.0611,-0.0643,-0.0618,-0.0652,-0.0598,-0.0581,-0.0467,-0.0406,-0.0324,-0.0278,-0.0259,-0.0192,-0.0227,-0.021,-0.0209,-0.0208,-0.0207,-0.0207,-0.0206,-0.0675,-0.0693,-0.0704,-0.0742,-0.074,-0.0671,-0.0643,-0.0536,-0.0412,-0.0399,-0.0295,-0.0293,-0.0303,-0.0374,-0.0374,-0.0375,-0.0375,-0.0375,-0.0375,-0.0738,-0.0754,-0.081,-0.0836,-0.0858,-0.0846,-0.0738,-0.0661,-0.0492,-0.0385,-0.0383,-0.0313,-0.0307,-0.031,-0.0377,-0.0377,-0.0377,-0.0376,-0.0376,-0.0826,-0.0825,-0.0919,-0.0956,-0.1003,-0.1006,-0.0899,-0.0691,-0.0574,-0.0469,-0.0345,-0.0345,-0.0299,-0.0294,-0.0294,-0.0354,-0.0354,-0.0354,-0.0354,-0.0876,-0.0886,-0.1006,-0.1081,-0.1131,-0.108,-0.0971,-0.0718,-0.0459,-0.0319,-0.0321,-0.0285,-0.0286,-0.0238,-0.0234,-0.0231,-0.0275,-0.0275,-0.0275,-0.0927,-0.0962,-0.1051,-0.1125,-0.1187,-0.1143,-0.1009,-0.0675,-0.0314,-0.0275,-0.0339,-0.0343,-0.0292,-0.0293,-0.0216,-0.0211,-0.0206,0,0]}],[{"header":{"parameterUnit":"m.s-1","parameterCategory":2,"la1":30.2992,"la2":30.254,"lo1":-89.0895,"lo2":-89.0443,"dy":0.0025,"dx":0.0025,"nx":19,"ny":19,"refTime":"2026-05-02T21:00:00:Z","depth":"4","parameterNumber":2,"parameterNumberName":"U-component_of_CURRENTS"},"data":[0,0,0,-0.1717,-0.172,-0.1882,-0.1883,-0.201,-0.201,0,0,0,0,0,0,0,0,0,0,0,-0.1663,-0.1664,-0.1717,-0.172,-0.1882,-0.1883,-0.2009,-0.201,0,0,0,0,0,0,0,0,0,0,0,-0.1662,-0.1663,-0.1665,-0.1721,-0.1882,-0.1883,-0.2009,-0.1908,0,0,0,0,0,0,0,0,0,0,-0.1761,-0.1725,-0.1663,-0.1665,-0.1722,-0.1881,-0.1883,-0.1904,-0.1914,-0.1912,0,-0.1943,0,-0.1976,-0.2017,-0.2017,0,0,0,-0.1724,-0.1717,-0.1756,-0.1665,-0.1723,-0.1881,-0.181,-0.191,-0.1922,-0.1925,-0.1945,-0.1951,-0.1978,-0.2017,-0.2018,-0.2124,-0.2125,0,0,-0.1715,-0.1695,-0.1748,-0.1763,-0.1771,-0.1805,-0.1815,-0.1918,-0.1933,-0.1946,-0.1954,-0.198,-0.2018,-0.2019,-0.2124,-0.2124,0,0,0,-0.1687,-0.1689,-0.1727,-0.1757,-0.1792,-0.1809,-0.1821,-0.1929,-0.1941,-0.1956,-0.1982,-0.2018,-0.202,-0.2123,-0.2124,-0.2152,0,0,0,-0.1682,-0.1672,-0.1723,-0.1713,-0.179,-0.1874,-0.1829,-0.1934,-0.1947,-0.1981,-0.2019,-0.2021,-0.2123,-0.2124,-0.215,-0.215,0,0,0,-0.1654,-0.1669,-0.1689,-0.1712,-0.178,-0.1874,-0.1893,-0.1938,-0.1962,-0.2017,-0.2021,-0.2122,-0.2123,-0.2149,-0.2148,-0.2151,0,0,0,-0.1626,-0.166,-0.1689,-0.1744,-0.1778,-0.1879,-0.1893,-0.1981,-0.2032,-0.2019,-0.2123,-0.2124,-0.2148,-0.2146,-0.2149,-0.1883,0,0,0,-0.1648,-0.1663,-0.1695,-0.1725,-0.1811,-0.1857,-0.1953,-0.2026,-0.2043,-0.2082,-0.2086,-0.2151,-0.2147,-0.215,-0.195,0,0,0,0,-0.1688,-0.1709,-0.1742,-0.1804,-0.1878,-0.1952,-0.2028,-0.2058,-0.2123,-0.2078,-0.2165,-0.2162,-0.2163,-0.2005,-0.2129,-0.2129,-0.2129,-0.2129,-0.2129,-0.1668,-0.172,-0.1778,-0.1851,-0.1921,-0.2028,-0.2085,-0.2136,-0.2155,-0.2189,-0.2196,-0.2232,-0.2068,-0.2216,-0.2216,-0.2216,-0.2216,-0.2216,-0.2216,-0.1678,-0.1698,-0.1789,-0.1865,-0.1955,-0.2043,-0.2142,-0.2176,-0.2234,-0.2237,-0.2237,-0.206,-0.2219,-0.2219,-0.2218,-0.2218,-0.2218,-0.2217,-0.2217,-0.163,-0.1645,-0.1721,-0.1826,-0.1934,-0.2049,-0.2107,-0.2199,-0.2248,-0.2268,-0.209,-0.2245,-0.2228,-0.2272,-0.2272,-0.2272,-0.2272,-0.2272,-0.2272,-0.1533,-0.1607,-0.1654,-0.1782,-0.1844,-0.1946,-0.2093,-0.2119,-0.2201,-0.2085,-0.2275,-0.225,-0.2248,-0.2232,-0.2272,-0.2272,-0.2272,-0.2272,-0.2272,-0.1439,-0.1488,-0.1534,-0.1595,-0.1721,-0.1772,-0.1952,-0.1953,-0.1956,-0.1901,-0.1978,-0.1993,-0.1951,-0.1956,-0.1928,-0.188,-0.1877,-0.1873,0,-0.1351,-0.1387,-0.1416,-0.1458,-0.1496,-0.1648,-0.1593,-0.1666,-0.1739,-0.1679,-0.1955,-0.2042,-0.205,-0.2006,-0.2005,-0.1971,0,0,0,-0.1275,-0.1301,-0.1277,-0.1349,-0.1378,-0.1429,-0.1565,-0.1518,-0.1739,-0.1668,-0.179,-0.1812,-0.2101,-0.2274,-0.2244,-0.2242,-0.2213,0,0]},{"header":{"parameterUnit":"m.s-1","parameterCategory":2,"la1":30.2992,"la2":30.254,"lo1":-89.0895,"lo2":-89.0443,"dy":0.0025,"dx":0.0025,"nx":19,"ny":19,"refTime":"2026-05-02T21:00:00:Z","depth":"4","parameterNumber":3,"parameterNumberName":"V-component_of_CURRENTS"},"data":[0,0,0,-0.0221,-0.022,-0.0187,-0.0186,-0.0102,-0.0101,0,0,0,0,0,0,0,0,0,0,0,-0.0232,-0.0232,-0.0221,-0.022,-0.0187,-0.0186,-0.0102,-0.0101,0,0,0,0,0,0,0,0,0,0,0,-0.0232,-0.0232,-0.0232,-0.022,-0.0187,-0.0186,-0.0102,-0.0135,0,0,0,0,0,0,0,0,0,0,-0.0172,-0.0195,-0.0232,-0.0232,-0.022,-0.0187,-0.0186,-0.0137,-0.0133,-0.0109,0,-0.0113,0,-0.0109,-0.0096,-0.0095,0,0,0,-0.0209,-0.0198,-0.0189,-0.0232,-0.022,-0.0187,-0.0199,-0.0135,-0.0131,-0.0104,-0.0111,-0.0108,-0.0108,-0.0095,-0.0095,-0.0045,-0.0045,0,0,-0.0211,-0.0221,-0.0193,-0.0187,-0.0221,-0.02,-0.0198,-0.0133,-0.0131,-0.0111,-0.0107,-0.0106,-0.0095,-0.0094,-0.0045,-0.0045,0,0,0,-0.0224,-0.0223,-0.0216,-0.019,-0.0189,-0.0199,-0.0197,-0.0134,-0.0132,-0.0106,-0.0105,-0.0094,-0.0093,-0.0045,-0.0045,-0.0118,0,0,0,-0.0224,-0.0231,-0.0217,-0.0222,-0.0191,-0.0168,-0.0199,-0.0137,-0.0129,-0.0106,-0.0094,-0.0092,-0.0045,-0.0045,-0.0116,-0.0161,0,0,0,-0.0232,-0.0232,-0.0232,-0.0223,-0.0214,-0.0169,-0.0163,-0.0135,-0.0129,-0.0095,-0.0092,-0.0045,-0.0045,-0.0114,-0.0157,-0.015,0,0,0,-0.0238,-0.0261,-0.0232,-0.0257,-0.0215,-0.0214,-0.0163,-0.0152,-0.013,-0.0094,-0.0045,-0.0045,-0.0114,-0.0154,-0.0149,-0.0156,0,0,0,-0.0274,-0.0265,-0.0281,-0.0255,-0.0279,-0.0218,-0.0226,-0.0172,-0.012,-0.0061,-0.006,-0.0117,-0.0157,-0.015,-0.0165,0,0,0,0,-0.0298,-0.0313,-0.0314,-0.032,-0.03,-0.0283,-0.0226,-0.0189,-0.0137,-0.0109,-0.01,-0.0122,-0.0116,-0.0113,-0.0046,-0.0046,-0.0046,-0.0046,-0.0046,-0.0357,-0.0354,-0.0388,-0.0381,-0.0373,-0.0322,-0.0295,-0.0229,-0.0175,-0.0159,-0.0169,-0.0199,-0.0199,-0.0146,-0.0146,-0.0146,-0.0147,-0.0147,-0.0147,-0.0426,-0.0452,-0.0446,-0.048,-0.045,-0.0445,-0.0361,-0.0314,-0.0253,-0.0211,-0.02,-0.0176,-0.0154,-0.0152,-0.0151,-0.0151,-0.015,-0.015,-0.0149,-0.0469,-0.0484,-0.0505,-0.0551,-0.0568,-0.0526,-0.0516,-0.0433,-0.0331,-0.0323,-0.0278,-0.0237,-0.0243,-0.0305,-0.0305,-0.0305,-0.0305,-0.0305,-0.0306,-0.0504,-0.0528,-0.0586,-0.0627,-0.0661,-0.067,-0.0603,-0.0548,-0.0439,-0.0366,-0.0339,-0.0252,-0.0247,-0.0251,-0.0308,-0.0308,-0.0308,-0.0307,-0.0307,-0.0557,-0.057,-0.0658,-0.0707,-0.0777,-0.0775,-0.0725,-0.059,-0.0528,-0.0442,-0.0364,-0.036,-0.0328,-0.0321,-0.0326,-0.0408,-0.0409,-0.0409,0,-0.0586,-0.0601,-0.0718,-0.0799,-0.0852,-0.0831,-0.0758,-0.0673,-0.0524,-0.0516,-0.0524,-0.0443,-0.0437,-0.0407,-0.04,-0.0411,0,0,0,-0.0618,-0.0653,-0.0736,-0.0819,-0.0881,-0.0786,-0.0733,-0.0679,-0.055,-0.0478,-0.0417,-0.0415,-0.0398,-0.0317,-0.0258,-0.0251,-0.0254,0,0]}]]